Location: Ar Ranvel
(48.3000°N, 4.8833°W)
Time: 16:12:14
(UTC+00:00)

ISS - Pass Details

Date: 04 October 2021
Orbit: 418 x 423 km, 51.6° (Epoch: 19 October)

Event Time Altitude Azimuth Distance (km) Brightness Sun altitude
Rises 19:05:35 0° 290° (WNW) 2,366 1.8 -13.0°
Reaches altitude 10° 19:07:49 10° 279° (W) 1,500 0.5 -13.4°
Maximum altitude 19:10:50 31° 216° (SW) 767 -2.2 -13.9°
Enters shadow 19:13:23 13° 156° (SSE) 1,336 -1.5 -14.3°
